• In Netherlands
  • List of Countries
  • For 7 days
  • Water Temperature
  • Satellite Maps
  • Weather Map
  • Weather Widgets
  • user-avatar
    Login

    Hourly Weather Hobart

    Today, 26 May, Friday

    Time Temperature Precipitation Wind Pressure Humidity
    00:00 +8°C° 0 mm 4 mps 746 mmHg 87%
    01:00 +8°C° 0 mm 5 mps 746 mmHg 85%
    02:00 +8°C° 0 mm 5 mps 746 mmHg 84%
    03:00 +7°C° 0 mm 5 mps 747 mmHg 84%
    04:00 +7°C° 0 mm 4 mps 747 mmHg 84%
    05:00 +7°C° 0 mm 4 mps 747 mmHg 84%
    06:00 +7°C° 0 mm 4 mps 748 mmHg 84%
    07:00 +7°C° 0 mm 4 mps 749 mmHg 84%
    08:00 +8°C° 0 mm 5 mps 749 mmHg 80%
    09:00 +9°C° 0 mm 5 mps 749 mmHg 76%
    10:00 +10°C° 0 mm 5 mps 749 mmHg 70%
    11:00 +10°C° 0 mm 5 mps 749 mmHg 67%
    12:00 +12°C° 0 mm 5 mps 749 mmHg 64%
    13:00 +12°C° 0 mm 5 mps 749 mmHg 62%
    14:00 +12°C° 0 mm 4 mps 749 mmHg 65%
    15:00 +11°C° 0 mm 4 mps 749 mmHg 68%
    16:00 +11°C° 0 mm 3 mps 749 mmHg 71%
    17:00 +9°C° 0 mm 3 mps 749 mmHg 77%
    18:00 +8°C° 0 mm 3 mps 749 mmHg 83%
    19:00 +7°C° 0 mm 2 mps 749 mmHg 89%
    20:00 +5°C° 0 mm 3 mps 749 mmHg 91%
    21:00 +5°C° 0 mm 3 mps 749 mmHg 92%
    22:00 +4°C° 0 mm 3 mps 749 mmHg 93%
    23:00 +4°C° 0 mm 3 mps 749 mmHg 93%

    Tomorrow, 27 May, Saturday

    Time Temperature Precipitation Wind Pressure Humidity
    00:00 +4°C° 0 mm 4 mps 749 mmHg 93%
    01:00 +4°C° 0 mm 4 mps 748 mmHg 92%
    02:00 +4°C° 0 mm 4 mps 748 mmHg 92%
    03:00 +4°C° 0 mm 4 mps 748 mmHg 91%
    04:00 +4°C° 0 mm 4 mps 747 mmHg 91%
    05:00 +4°C° 0 mm 4 mps 747 mmHg 91%
    06:00 +4°C° 0 mm 4 mps 746 mmHg 91%
    07:00 +4°C° 0 mm 4 mps 746 mmHg 91%
    08:00 +7°C° 0 mm 4 mps 746 mmHg 85%
    09:00 +9°C° 0 mm 5 mps 746 mmHg 78%
    10:00 +11°C° 0 mm 6 mps 745 mmHg 71%
    11:00 +13°C° 0 mm 6 mps 745 mmHg 67%
    12:00 +15°C° 0 mm 6 mps 744 mmHg 63%
    13:00 +16°C° 0 mm 6 mps 743 mmHg 59%
    14:00 +15°C° 0 mm 6 mps 743 mmHg 62%
    15:00 +14°C° 0 mm 6 mps 742 mmHg 65%
    16:00 +13°C° 0 mm 5 mps 742 mmHg 69%
    17:00 +13°C° 0 mm 5 mps 741 mmHg 73%
    18:00 +11°C° 0 mm 6 mps 741 mmHg 77%
    19:00 +10°C° 0 mm 6 mps 741 mmHg 80%
    20:00 +10°C° 0 mm 6 mps 741 mmHg 81%
    21:00 +9°C° 0 mm 6 mps 740 mmHg 82%
    22:00 +9°C° 0 mm 6 mps 740 mmHg 83%
    23:00 +9°C° 0.2 mm 6 mps 739 mmHg 85%

    Day after tomorrow, 28 May, Sunday

    Time Temperature Precipitation Wind Pressure Humidity
    00:00 +9°C° 0.2 mm 6 mps 739 mmHg 87%
    01:00 +9°C° 0.2 mm 6 mps 738 mmHg 88%
    02:00 +9°C° 0.2 mm 5 mps 738 mmHg 90%
    03:00 +8°C° 0.2 mm 4 mps 737 mmHg 92%
    04:00 +9°C° 0.2 mm 3 mps 737 mmHg 95%
    05:00 +9°C° 0.1 mm 3 mps 737 mmHg 94%
    06:00 +9°C° 0.1 mm 3 mps 737 mmHg 94%
    07:00 +9°C° 0.1 mm 3 mps 736 mmHg 94%
    08:00 +9°C° 0 mm 3 mps 737 mmHg 90%
    09:00 +10°C° 0 mm 4 mps 737 mmHg 86%
    10:00 +10°C° 0 mm 4 mps 737 mmHg 81%
    11:00 +11°C° 0 mm 4 mps 736 mmHg 78%
    12:00 +10°C° 0 mm 5 mps 736 mmHg 74%
    13:00 +10°C° 0 mm 5 mps 736 mmHg 70%
    14:00 +9°C° 0.1 mm 5 mps 736 mmHg 72%
    15:00 +9°C° 0.1 mm 5 mps 736 mmHg 75%
    16:00 +8°C° 0.1 mm 5 mps 736 mmHg 78%
    17:00 +7°C° 0 mm 5 mps 737 mmHg 81%
    18:00 +6°C° 0 mm 5 mps 737 mmHg 85%
    19:00 +5°C° 0 mm 5 mps 737 mmHg 88%
    20:00 +5°C° 0 mm 5 mps 738 mmHg 88%
    21:00 +3°C° 0 mm 5 mps 738 mmHg 89%
    22:00 +3°C° 0 mm 5 mps 739 mmHg 89%
    23:00 +3°C° 0 mm 5 mps 739 mmHg 90%

    29 May, Monday

    Time Temperature Precipitation Wind Pressure Humidity
    00:00 +3°C° 0 mm 5 mps 739 mmHg 91%
    01:00 +2°C° 0 mm 5 mps 739 mmHg 91%
    02:00 +3°C° 0 mm 5 mps 740 mmHg 91%
    03:00 +3°C° 0 mm 5 mps 740 mmHg 92%
    04:00 +3°C° 0 mm 6 mps 740 mmHg 92%
    05:00 +3°C° 0.1 mm 6 mps 741 mmHg 91%
    06:00 +4°C° 0.1 mm 6 mps 741 mmHg 90%
    07:00 +4°C° 0.1 mm 6 mps 742 mmHg 89%
    08:00 +5°C° 0 mm 6 mps 742 mmHg 84%
    09:00 +5°C° 0 mm 7 mps 743 mmHg 78%
    10:00 +6°C° 0 mm 7 mps 743 mmHg 73%
    11:00 +8°C° 0.1 mm 7 mps 743 mmHg 70%
    12:00 +8°C° 0.1 mm 7 mps 744 mmHg 68%
    13:00 +8°C° 0.1 mm 7 mps 744 mmHg 66%
    14:00 +8°C° 0 mm 6 mps 744 mmHg 67%
    15:00 +8°C° 0 mm 6 mps 744 mmHg 69%
    16:00 +7°C° 0 mm 5 mps 744 mmHg 70%
    17:00 +6°C° 0 mm 5 mps 745 mmHg 76%
    18:00 +6°C° 0 mm 5 mps 745 mmHg 81%
    19:00 +5°C° 0 mm 4 mps 745 mmHg 87%
    20:00 +5°C° 0 mm 4 mps 745 mmHg 86%
    21:00 +5°C° 0 mm 4 mps 745 mmHg 86%
    22:00 +5°C° 0 mm 4 mps 745 mmHg 85%
    23:00 +5°C° 0 mm 4 mps 745 mmHg 85%

    30 May, Tuesday

    Time Temperature Precipitation Wind Pressure Humidity
    00:00 +6°C° 0 mm 4 mps 744 mmHg 84%
    01:00 +6°C° 0 mm 5 mps 744 mmHg 83%
    02:00 +6°C° 0.1 mm 5 mps 744 mmHg 84%
    03:00 +7°C° 0.1 mm 5 mps 743 mmHg 85%
    04:00 +7°C° 0.1 mm 5 mps 743 mmHg 86%
    05:00 +7°C° 0.1 mm 5 mps 743 mmHg 89%
    06:00 +7°C° 0.1 mm 5 mps 742 mmHg 91%
    07:00 +7°C° 0.1 mm 5 mps 742 mmHg 93%
    08:00 +8°C° 0 mm 5 mps 742 mmHg 89%
    09:00 +10°C° 0 mm 5 mps 743 mmHg 84%
    10:00 +12°C° 0 mm 5 mps 743 mmHg 79%
    11:00 +13°C° 0 mm 4 mps 743 mmHg 76%
    12:00 +13°C° 0 mm 4 mps 742 mmHg 73%
    13:00 +14°C° 0 mm 4 mps 742 mmHg 69%
    14:00 +13°C° 0.5 mm 3 mps 743 mmHg 77%
    15:00 +12°C° 0.5 mm 3 mps 743 mmHg 85%
    16:00 +12°C° 0.5 mm 2 mps 743 mmHg 92%
    17:00 +10°C° 0.8 mm 3 mps 744 mmHg 93%
    18:00 +8°C° 0.8 mm 5 mps 745 mmHg 95%
    19:00 +8°C° 0.8 mm 6 mps 746 mmHg 96%
    20:00 +7°C° 0.2 mm 6 mps 746 mmHg 95%
    21:00 +7°C° 0.2 mm 5 mps 747 mmHg 94%
    22:00 +6°C° 0.2 mm 5 mps 748 mmHg 93%
    23:00 +6°C° 0.1 mm 5 mps 748 mmHg 92%

    31 May, Wednesday

    Time Temperature Precipitation Wind Pressure Humidity
    00:00 +6°C° 0.1 mm 4 mps 749 mmHg 92%
    01:00 +6°C° 0.1 mm 4 mps 749 mmHg 92%
    02:00 +5°C° 0 mm 4 mps 750 mmHg 93%
    03:00 +4°C° 0 mm 4 mps 750 mmHg 94%
    04:00 +4°C° 0 mm 4 mps 750 mmHg 95%
    05:00 +3°C° 0 mm 4 mps 751 mmHg 95%
    06:00 +3°C° 0 mm 4 mps 752 mmHg 94%
    07:00 +3°C° 0 mm 3 mps 752 mmHg 94%
    08:00 +4°C° 0 mm 3 mps 753 mmHg 91%
    09:00 +5°C° 0 mm 3 mps 753 mmHg 88%
    10:00 +6°C° 0 mm 4 mps 753 mmHg 84%
    11:00 +7°C° 0 mm 4 mps 753 mmHg 80%
    12:00 +8°C° 0 mm 4 mps 753 mmHg 76%
    13:00 +9°C° 0 mm 5 mps 753 mmHg 72%
    14:00 +10°C° 0 mm 4 mps 753 mmHg 73%
    15:00 +8°C° 0 mm 4 mps 753 mmHg 75%
    16:00 +8°C° 0 mm 4 mps 753 mmHg 77%
    17:00 +7°C° 0 mm 4 mps 753 mmHg 80%
    18:00 +6°C° 0 mm 4 mps 753 mmHg 84%
    19:00 +6°C° 0 mm 5 mps 754 mmHg 87%
    20:00 +6°C° 0 mm 5 mps 754 mmHg 87%
    21:00 +7°C° 0 mm 5 mps 754 mmHg 86%
    22:00 +7°C° 0 mm 6 mps 754 mmHg 85%
    23:00 +8°C° 0 mm 6 mps 753 mmHg 85%
    Show more